Weather History for Paganella, Italy

Change the Weather History Date:

Friday, November 4, 2011

  Actual Average Record
Temperature  
Mean Temperature 37 °F -  
Max Temperature 39 °F 33 °F 50 °F (2004)
Min Temperature 35 °F 25 °F 15 °F (2006)
Degree Days  
Heating Degree Days 28    
Moisture  
Dew Point 37 °F    
Average Humidity 100    
Maximum Humidity 100    
Minimum Humidity 93    
Precipitation  
Precipitation 0.28 in 0.06 in - ()
Sea Level Pressure  
Sea Level Pressure 29.98 in    
Wind  
Wind Speed 16 mph ()    
Max Wind Speed 22 mph    
Max Gust Speed 33 mph    
Visibility 0.0 miles    
Events Fog , Rain    
Averages and records for this station are not official NWS values.
T = Trace of Precipitation, MM = Missing Value Source: Averaged Metar Reports

Daily Weather History Graph

Daily Weather History Graph

Search for Another Location

Airport:

Trip Planner

Search our weather history database for the weather conditions in past years. The results will help you decide how hot, cold, wet, or windy it might be!

Date:

Astronomy

Nov. 04, 2011 Rise Set
Actual Time 7:00 AM CET 4:57 PM CET
Civil Twilight 6:28 AM CET 5:29 PM CET
Nautical Twilight 5:53 AM CET 6:04 PM CET
Astronomical Twilight 5:18 AM CET 6:39 PM CET
Moon 1:59 PM CET (11/4) 12:36 AM CET (11/4)
Length of Visible Light 11h 00m
Length of Day
9h 57m
Waxing Gibbous, 67% of the Moon is Illuminated
Nov 4
Waxing Gibbous
Nov 10
Full
Nov 18
Last Quarter
Nov 25
New
Dec 2
First Quarter

Hourly Weather History & Observations

Time (CET) Temp. Windchill Dew Point Humidity Pressure Visibility Wind Dir Wind Speed Gust Speed Precip Events Conditions
12:55 AM 35.6 °F 24.8 °F 35.6 °F 100% 29.95 in 0.0 mi SSW 19.6 mph - N/A Fog Fog
1:00 AM 36 °F - 36 °F 98%  in 0 mi SSW 19.6 mph - - Fog Heavy Fog
1:55 AM 35.6 °F 24.5 °F 35.6 °F 100% 29.95 in 0.0 mi SSW 20.7 mph 33.4 mph N/A Fog Fog
2:55 AM 35.6 °F 24.5 °F 35.6 °F 100% 29.95 in 0.0 mi SSW 20.7 mph - N/A Fog Fog
4:00 AM 36 °F - 36 °F 98%  in 0 mi SSW 19.6 mph - - Fog Heavy Fog
5:55 AM 35.6 °F 24.8 °F 35.6 °F 100% 29.95 in 0.0 mi SSW 19.6 mph - N/A Fog Fog
6:55 AM 35.6 °F 25.2 °F 35.6 °F 100% 29.95 in 0.0 mi SSW 18.4 mph - N/A Fog Fog
7:00 AM 36 °F - 36 °F 100%  in 0 mi SSW 18.4 mph - - Fog Heavy Fog
7:55 AM 37.4 °F 29.8 °F 37.4 °F 100% 29.95 in 0.0 mi South 11.5 mph - N/A Fog Fog
8:55 AM 37.4 °F 29.8 °F 37.4 °F 100% 29.98 in 0.0 mi SSW 11.5 mph - N/A Fog , Rain Light Rain
9:55 AM 37.4 °F 30.8 °F 37.4 °F 100% 30.01 in 0.0 mi South 9.2 mph - N/A Fog , Rain Light Rain
10:55 AM 37.4 °F 32.1 °F 37.4 °F 100% 30.01 in 0.1 mi South 6.9 mph - N/A Fog , Rain Light Rain
12:55 PM 39.2 °F 32.0 °F 39.2 °F 100% 30.01 in 0.0 mi SSE 11.5 mph - N/A Fog , Rain Light Rain
1:00 PM 39 °F - 39 °F 100%  in 0 mi SSE 11.5 mph - - Rain Light Rain
1:55 PM 39.2 °F 33.0 °F 39.2 °F 100% 30.01 in 0.0 mi South 9.2 mph - N/A Fog , Rain Light Rain
2:55 PM 39.2 °F 30.8 °F 39.2 °F 100% 29.98 in 0.0 mi SSE 15.0 mph - N/A Fog , Rain Light Rain
4:00 PM 38 °F - 38 °F 100%  in 0 mi SE 18.4 mph - - Rain Light Rain
4:55 PM 37.4 °F 27.5 °F 37.4 °F 100% 29.98 in 0.0 mi SE 18.4 mph - N/A Fog , Rain Light Rain
5:55 PM 37.4 °F 26.9 °F 37.4 °F 100% 29.98 in 0.0 mi SSE 20.7 mph - N/A Fog , Rain Light Rain
6:55 PM 37.4 °F 26.6 °F 37.4 °F 100% 29.98 in 0.0 mi SE 21.9 mph - N/A Fog , Rain Light Rain
7:00 PM 38 °F - 38 °F 100%  in 0 mi SE 21.9 mph - - Rain Light Rain
7:55 PM 39.2 °F 29.0 °F 37.4 °F 93% 29.98 in 0.0 mi SE 21.9 mph - N/A Fog , Rain Light Rain
9:55 PM 39.2 °F 29.6 °F 39.2 °F 100% 30.01 in 0.0 mi SE 19.6 mph - N/A Fog , Rain Light Rain
10:00 PM 39 °F - 39 °F 99%  in 0 mi SE 19.6 mph - - Rain Light Rain
10:55 PM 39.2 °F 29.0 °F 39.2 °F 100% 29.98 in 0.0 mi SE 21.9 mph - N/A Fog , Rain Light Rain
11:55 PM 39.2 °F 29.8 °F 39.2 °F 100% 30.01 in 0.0 mi SE 18.4 mph - N/A Fog , Rain Light Rain